Location: Unspecified
(41.6146°N, 0.0000°E)
Time: 16:59:35
(UTC+00:00)

IRS-1C Rocket - Visible Passes

Search period start: 04 April 2026 00:00
Search period end: 14 April 2026 00:00
Orbit: 800 x 804 km, 98.7° (Epoch: 29 March)

Date Brightness Start Highest point End Pass type
(mag) Time Alt. Az. Time Alt. Az. Time Alt. Az.
4 Apr 5.9 20:04:57 14° ENE 20:05:12 14° ENE 20:07:49 10° NNE visible
4 Apr 5.0 21:45:54 44° NNW 21:45:54 44° NNW 21:49:29 10° NNW visible
5 Apr 4.8 21:19:21 46° NNE 21:19:21 46° NNE 21:23:16 10° N visible
5 Apr 6.6 23:00:19 14° WNW 23:00:19 14° WNW 23:01:38 10° NW visible
6 Apr 5.0 20:52:47 33° NE 20:52:47 33° NE 20:56:49 10° N visible
6 Apr 6.1 22:33:45 24° WNW 22:33:45 24° WNW 22:36:24 10° NW visible
7 Apr 5.5 20:26:14 21° ENE 20:26:14 21° ENE 20:30:05 10° NNE visible
7 Apr 5.3 22:07:11 38° NW 22:07:11 38° NW 22:10:41 10° NNW visible
8 Apr 6.0 19:59:40 12° ENE 20:00:27 13° ENE 20:02:38 10° NNE visible
8 Apr 4.7 21:40:38 54° NNW 21:40:38 54° NNW 21:44:40 10° NNW visible
9 Apr 4.6 21:14:05 48° NE 21:14:05 48° NE 21:18:25 10° N visible
9 Apr 6.4 22:55:03 17° WNW 22:55:03 17° WNW 22:57:03 10° NW visible
10 Apr 5.1 20:47:31 31° ENE 20:47:31 31° ENE 20:51:55 10° N visible
10 Apr 5.8 22:28:29 28° WNW 22:28:29 28° WNW 22:31:41 10° NNW visible
11 Apr 5.6 20:20:58 19° ENE 20:21:27 19° ENE 20:25:05 10° NNE visible
11 Apr 5.0 22:01:56 46° NW 22:01:56 46° NW 22:05:54 10° NNW visible
12 Apr 6.1 19:54:25 11° ENE 19:55:42 11° ENE 19:57:20 10° NE visible
12 Apr 4.3 21:35:22 63° N 21:35:22 63° N 21:39:50 10° NNW visible
12 Apr 6.8 23:16:20 11° WNW 23:16:20 11° WNW 23:16:52 10° WNW visible
13 Apr 4.5 21:08:49 47° ENE 21:08:49 47° ENE 21:13:32 10° N visible
13 Apr 6.2 22:49:47 20° WNW 22:49:47 20° WNW 22:52:25 10° NW visible
